Waarnemingen

Advertentie
Mijn weer
Istres, Frankrijk (7647): temperatuur & dauwpunt: 18.08.2019 02:00:00 - 24.08.2019 02:00:00 (CEST)Istres, Frankrijk (7647): temperatuur 5cm: 18.08.2019 02:00:00 - 24.08.2019 02:00:00 (CEST)Istres, Frankrijk (7647): windsnelheid & windstoten: 18.08.2019 02:00:00 - 24.08.2019 02:00:00 (CEST)Istres, Frankrijk (7647): windrichting: 18.08.2019 02:00:00 - 24.08.2019 02:00:00 (CEST)Istres, Frankrijk (7647): luchtdruk: 18.08.2019 02:00:00 - 24.08.2019 02:00:00 (CEST)Istres, Frankrijk (7647): zicht: 18.08.2019 02:00:00 - 24.08.2019 02:00:00 (CEST)Istres, Frankrijk (7647): neerslag: 18.08.2019 02:00:00 - 24.08.2019 02:00:00 (CEST)
Datum & Tijd tt [°C] td [°C] tt 5cm [°C] ff [km/u] ff [kn] fx [km/u] fx [kn] dd ppp [hPa] vv [km] rr [mm]
24.08.2019 02:00:00 21,2 18,4 20,5 6 3 10 5 NNO 1019,5 13 0,0
24.08.2019 01:00:00 21,7 18,9 20,9 6 3 9 5 N 1019,6 14 0,0
24.08.2019 00:00:00 22,2 18,6 21,4 6 4 10 5 NO 1019,4 17 0,0
23.08.2019 23:00:00 24,0 18,6 22,4 8 4 11 6 OZO 1019,4 33 0,0
23.08.2019 22:00:00 23,2 19,6 22,4 7 4 14 7 ZO 1019,2 24 0,0
23.08.2019 21:00:00 23,9 19,4 23,5 9 5 14 8 ZO 1018,7 32 0,0
23.08.2019 20:00:00 25,5 18,4 26,7 10 5 26 14 ZZO 1018,5 47 0,0
23.08.2019 19:00:00 26,9 17,1 30,3 20 11 29 16 ZZO 1018,5 53 0,0
23.08.2019 18:00:00 28,5 14,0 33,9 21 12 32 18 Z 1018,2 38 0,0
23.08.2019 17:00:00 29,6 15,3 35,6 23 13 36 19 Z 1018,1 41 0,0
23.08.2019 16:00:00 30,0 14,9 36,9 24 13 35 19 Z 1018,5 48 0,0
23.08.2019 15:00:00 30,6 13,8 37,0 23 13 32 18 ZZO 1018,8 59 0,0
23.08.2019 14:00:00 31,8 13,5 37,7 22 12 29 16 ZZO 1018,8 59 0,0
23.08.2019 13:00:00 30,6 14,2 35,3 6 3 20 11 OZO 1019,0 19 0,0
23.08.2019 12:00:00 28,7 16,3 32,6 10 5 18 10 NNO 1019,3 45 0,0
23.08.2019 11:00:00 26,5 15,5 29,8 12 6 21 11 N 1019,2 53 0,0
23.08.2019 10:00:00 23,7 16,2 25,9 13 7 22 12 N 1019,3 46 0,0
23.08.2019 09:00:00 21,9 16,0 22,2 17 9 26 14 NNW 1019,3 36 0,0
23.08.2019 08:00:00 20,0 16,0 18,2 12 6 21 11 N 1019,1 37 0,0
23.08.2019 07:00:00 18,7 15,8 18,0 14 8 20 11 N 1019,1 41 0,0
23.08.2019 06:00:00 19,1 16,0 17,9 15 8 23 12 N 1018,9 43 0,0
23.08.2019 05:00:00 18,5 15,9 17,8 10 5 16 9 NNO 1019,1 32 0,0
23.08.2019 04:00:00 18,9 16,7 18,2 11 6 18 10 N 1019,3 35 0,0
23.08.2019 03:00:00 18,8 17,3 18,3 7 4 14 8 NNO 1019,5 33 0,0
23.08.2019 02:00:00 19,8 17,6 18,9 6 4 8 5 N 1019,6 31 0,0
23.08.2019 01:00:00 20,5 17,5 19,1 0 0 7 4 N 1019,8 37 0,0
23.08.2019 00:00:00 20,7 17,9 19,5 0 0 5 3 N 1020,2 41 0,0
22.08.2019 23:00:00 21,3 17,3 20,4 0 0 17 9 N 1020,0 51 0,0
22.08.2019 22:00:00 21,3 17,1 19,6 11 6 20 11 NNO 1019,6 50 0,0
22.08.2019 21:00:00 21,7 17,5 19,8 15 8 31 17 ONO 1019,5 48 0,8
22.08.2019 20:00:00 22,7 17,2 19,7 18 10 42 23 ONO 1020,5 2,7 0,8
22.08.2019 19:00:00 29,8 16,9 34,0 22 12 31 17 Z 1018,8 20 0,0
22.08.2019 18:00:00 32,1 15,1 37,1 9 5 18 10 W 1018,2 25 0,0
22.08.2019 17:00:00 30,8 15,2 33,2 3 2 21 11 Z 1018,5 21 0,0
22.08.2019 16:00:00 30,3 15,2 32,7 18 10 26 14 Z 1018,5 46 0,0
22.08.2019 15:00:00 29,6 15,3 33,0 18 10 27 14 NNW 1018,5 33 0,0
22.08.2019 14:00:00 31,5 15,0 34,0 16 9 27 15 NNW 1018,5 20 0,0
22.08.2019 13:00:00 29,2 15,3 34,1 14 8 28 15 NNW 1018,9 40 0,0
22.08.2019 12:00:00 28,6 14,8 33,3 14 7 25 14 N 1019,1 36 0,0
22.08.2019 11:00:00 26,1 14,5 26,1 13 7 23 12 N 1019,2 60 0,0
22.08.2019 10:00:00 23,0 14,0 22,9 14 8 19 10 NNW 1019,2 47 0,0
22.08.2019 09:00:00 21,3 14,0 21,0 14 7 22 12 N 1018,9 60 0,0
22.08.2019 08:00:00 20,3 13,7 19,8 16 9 25 13 N 1018,2 60 0,0
22.08.2019 07:00:00 20,0 13,5 19,5 8 4 13 7 NNW 1018,4 60 0,0
22.08.2019 06:00:00 20,6 13,5 20,2 10 5 16 9 NNW 1018,0 60 0,0
22.08.2019 05:00:00 20,8 13,2 20,0 10 6 17 9 N 1017,7 60 0,0
22.08.2019 04:00:00 20,7 13,2 20,2 4 2 18 10 NNO 1017,6 60 0,0
22.08.2019 03:00:00 21,8 13,2 21,4 13 7 27 14 N 1017,8 60 0,0
22.08.2019 02:00:00 22,1 13,4 21,5 14 7 22 12 NNW 1017,9 60 0,0
22.08.2019 01:00:00 21,9 13,3 21,6 12 6 24 13 N 1018,2 60 0,0
22.08.2019 00:00:00 22,2 13,5 21,8 18 10 24 13 NNW 1018,3 60 0,0
21.08.2019 23:00:00 22,7 13,5 22,3 13 7 21 11 NNW 1018,2 60 0,0
21.08.2019 22:00:00 23,6 13,2 23,4 15 8 22 12 NNW 1018,1 60 0,0
21.08.2019 21:00:00 24,7 12,9 24,4 17 9 32 18 NNW 1017,7 60 0,0
21.08.2019 20:00:00 26,7 13,1 27,3 22 12 30 16 NNW 1017,0 49 0,0
21.08.2019 19:00:00 28,5 12,8 30,0 22 12 29 16 N 1016,7 60 0,0
21.08.2019 18:00:00 29,8 13,1 35,5 18 10 29 16 N 1017,0 30 0,0
21.08.2019 17:00:00 30,1 13,8 36,5 16 9 30 16 NW 1017,0 27 0,0
21.08.2019 16:00:00 29,7 14,3 35,7 20 11 39 21 NW 1017,2 19 0,0
21.08.2019 15:00:00 29,5 14,1 33,8 23 13 39 21 NNW 1017,3 19 0,0
21.08.2019 14:00:00 28,7 14,1 34,4 22 12 34 18 NNW 1017,6 25 0,0
21.08.2019 13:00:00 27,5 13,1 33,1 21 12 32 17 NW 1018,0 20 0,0
21.08.2019 12:00:00 25,9 12,7 29,6 17 9 34 18 N 1018,3 20 0,0
21.08.2019 11:00:00 23,4 12,1 26,8 25 14 39 21 N 1018,7 19 0,0
21.08.2019 10:00:00 21,9 11,9 24,6 25 14 37 20 N 1018,7 22 0,0
21.08.2019 09:00:00 19,7 12,0 21,1 23 12 36 19 N 1018,8 25 0,0
21.08.2019 08:00:00 18,2 11,7 16,9 22 12 36 19 N 1018,6 26 0,0
21.08.2019 07:00:00 17,2 11,7 16,7 22 12 32 17 N 1018,2 60 0,0
21.08.2019 06:00:00 17,5 12,0 17,0 18 10 30 16 N 1017,9 60 0,0
21.08.2019 05:00:00 17,8 12,0 17,3 17 9 31 17 NNW 1018,1 60 0,0
21.08.2019 04:00:00 18,0 12,0 17,6 23 12 38 21 N 1018,0 60 0,0
21.08.2019 03:00:00 18,2 12,4 17,8 23 12 39 21 NNW 1018,1 60 0,0
21.08.2019 02:00:00 18,6 12,3 18,1 28 15 43 23 NNW 1018,4 60 0,0
21.08.2019 01:00:00 18,6 12,3 18,2 27 14 46 25 NNW 1018,7 60 0,0
21.08.2019 00:00:00 18,9 12,4 18,4 29 16 46 25 NNW 1018,9 60 0,0
20.08.2019 23:00:00 19,0 12,5 18,7 35 19 55 30 NW 1019,3 60 0,0
20.08.2019 22:00:00 19,4 12,6 19,2 36 20 58 31 NNW 1019,6 60 0,0
20.08.2019 21:00:00 20,1 13,1 20,0 34 19 46 25 NW 1019,1 60 0,0
20.08.2019 20:00:00 21,7 12,8 22,7 27 14 46 25 NNW 1018,7 44 0,0
20.08.2019 19:00:00 21,5 13,7 21,5 32 18 58 31 NNW 1018,9 38 0,0
20.08.2019 18:00:00 21,5 14,2 22,0 28 15 41 22 NW 1018,9 53 0,0
20.08.2019 17:00:00 21,9 14,0 23,8 29 16 44 24 NNW 1019,0 18 0,0
20.08.2019 16:00:00 22,3 14,2 24,0 27 15 44 24 NNW 1019,4 21 0,0
20.08.2019 15:00:00 22,6 13,9 24,8 36 19 54 29 NNW 1019,6 18 0,0
20.08.2019 14:00:00 23,5 13,7 26,5 37 20 52 28 NW 1019,2 20 0,0
20.08.2019 13:00:00 23,7 14,1 26,2 32 17 45 25 NW 1018,7 27 0,0
20.08.2019 12:00:00 23,3 14,0 26,3 27 14 35 19 NW 1018,8 40 0,0
20.08.2019 11:00:00 23,5 14,2 25,9 18 10 31 17 NW 1018,4 35 0,0
20.08.2019 10:00:00 22,4 14,5 23,8 19 10 30 16 NNW 1017,8 38 0,0
20.08.2019 09:00:00 21,9 14,0 22,9 22 12 29 16 NW 1017,8 30 0,0
20.08.2019 08:00:00 21,5 14,4 21,2 19 10 26 14 NNW 1017,4 18 0,0
20.08.2019 07:00:00 21,2 13,9 21,1 12 7 26 14 N 1016,4 60 0,0
20.08.2019 06:00:00 21,6 14,5 21,6 13 7 20 11 NNW 1016,1 60 0,0
20.08.2019 05:00:00 21,7 14,8 21,7 15 8 24 13 N 1016,6 60 0,0
20.08.2019 04:00:00 21,7 14,6 21,8 21 11 27 15 NNW 1016,9 60 0,0
20.08.2019 03:00:00 22,1 15,4 22,1 9 5 16 8 NNW 1017,0 60 0,0
20.08.2019 02:00:00 22,5 15,8 22,5 10 5 22 12 N 1017,2 60 0,0
20.08.2019 01:00:00 23,0 16,1 23,1 16 9 29 15 N 1017,4 60 0,0
20.08.2019 00:00:00 24,2 19,9 23,8 9 5 17 9 NW 1018,0 36 0,0
19.08.2019 23:00:00 23,9 21,4 23,8 0 0 8 4 N 1017,7 28 0,0
19.08.2019 22:00:00 24,5 20,8 24,5 6 3 15 8 ZZW 1017,3 30 0,0
19.08.2019 21:00:00 25,3 19,9 25,4 8 4 16 9 ZW 1017,0 37 0,0
19.08.2019 20:00:00 26,0 20,6 26,6 13 7 17 9 ZW 1016,8 37 0,0
19.08.2019 19:00:00 26,7 20,8 28,2 14 8 19 11 WZW 1016,4 38 0,0
19.08.2019 18:00:00 27,3 20,6 29,2 11 6 24 13 WZW 1016,4 40 0,0
19.08.2019 17:00:00 27,1 20,4 29,2 10 5 23 12 ZW 1016,3 35 0,0
19.08.2019 16:00:00 26,7 20,8 29,2 18 10 30 16 ZW 1016,6 20 0,0
19.08.2019 15:00:00 28,2 21,0 31,7 21 11 31 17 ZW 1016,4 13 0,0
19.08.2019 14:00:00 29,1 19,7 31,8 13 7 23 12 Z 1016,1 19 0,0
19.08.2019 13:00:00 28,4 19,9 32,2 8 4 18 10 Z 1016,1 19 0,0
19.08.2019 12:00:00 28,8 19,4 32,3 7 4 14 8 OZO 1016,4 20 0,0
19.08.2019 11:00:00 27,3 19,4 32,2 7 4 14 8 OZO 1016,3 18 0,0
19.08.2019 10:00:00 26,1 19,5 28,0 6 3 13 7 O 1016,5 20 0,0
19.08.2019 09:00:00 24,1 18,3 24,2 9 5 12 6 ONO 1016,2 20 0,0
19.08.2019 08:00:00 21,3 18,1 20,4 6 3 9 5 NNO 1016,0 21 0,0
19.08.2019 07:00:00 20,2 18,1 20,1 5 3 9 5 NNO 1015,6 14 0,0
19.08.2019 06:00:00 21,0 19,1 20,6 4 2 16 9 NNO 1015,4 12 0,0
19.08.2019 05:00:00 20,8 19,1 20,6 6 4 13 7 NO 1015,5 14 0,0
19.08.2019 04:00:00 21,4 20,0 20,9 6 4 11 6 NNO 1015,7 12 0,0
19.08.2019 03:00:00 21,6 20,2 20,9 8 4 11 6 ONO 1015,5 11 0,0
19.08.2019 02:00:00 22,5 20,4 21,5 0 0 11 6 N 1016,1 16 0,0
19.08.2019 01:00:00 22,7 21,3 21,8 6 3 12 7 ZZO 1015,9 16 0,0
19.08.2019 00:00:00 23,0 21,4 22,6 6 3 21 12 ZZO 1015,8 16 0,0
18.08.2019 23:00:00 23,4 21,3 22,5 16 8 26 14 Z 1015,7 19 0,0
18.08.2019 22:00:00 22,9 21,0 22,5 13 7 23 13 Z 1015,1 20 0,0
18.08.2019 21:00:00 23,2 20,7 23,0 18 10 30 16 ZZO 1013,9 30 0,0
18.08.2019 20:00:00 24,2 20,9 25,1 23 12 35 19 Z 1013,9 26 0,0
18.08.2019 19:00:00 25,6 20,6 29,3 24 13 32 17 Z 1013,9 32 0,0
18.08.2019 18:00:00 27,2 20,5 33,0 25 13 41 22 ZZO 1013,7 24 0,0
18.08.2019 17:00:00 27,9 20,5 34,3 32 17 42 23 ZZO 1013,7 19 0,0
18.08.2019 16:00:00 29,5 19,5 35,0 28 15 42 23 Z 1014,1 20 0,0
18.08.2019 15:00:00 30,3 16,3 35,9 28 15 42 23 ZO 1014,1 23 0,0
18.08.2019 14:00:00 29,6 17,1 34,2 26 14 41 22 ZO 1014,3 24 0,0
18.08.2019 13:00:00 28,1 19,1 33,4 26 14 42 23 ZO 1014,8 20 0,0
18.08.2019 12:00:00 27,9 19,9 31,4 28 15 40 22 ZZO 1015,1 20 0,0
18.08.2019 11:00:00 27,4 20,2 28,1 24 13 36 19 ZO 1015,0 40 0,0
18.08.2019 10:00:00 25,1 20,4 26,6 15 8 24 13 O 1015,0 20 0,0
18.08.2019 09:00:00 23,7 19,8 24,7 11 6 18 10 O 1014,9 23 0,0
18.08.2019 08:00:00 22,7 20,4 21,3 14 7 20 11 OZO 1014,4 19 0,0
18.08.2019 07:00:00 21,6 20,2 21,1 13 7 22 12 OZO 1014,2 15 0,0
18.08.2019 06:00:00 21,7 20,5 20,9 10 6 14 7 OZO 1014,3 7 0,0
18.08.2019 05:00:00 21,5 20,7 20,9 6 4 13 7 OZO 1014,6 6 0,0
18.08.2019 04:00:00 22,1 21,3 21,2 9 5 13 7 ZO 1014,9 6 0,0
18.08.2019 03:00:00 21,8 21,0 21,0 6 3 10 6 O 1015,3 7 0,0
18.08.2019 02:00:00 21,7 20,7 20,9 4 2 9 5 O 1015,6 10 0,0

tt = temperatuur
td = dauwpunt
tt 5cm = temperatuur 5cm
ff = windsnelheid
fx = windstoten
dd = windrichting
ppp = luchtdruk
vv = zicht
rr = neerslag

Weerstations in de omgeving